Time,TemperatureF,DewpointF,PressureIn,WindDirection,WindDirectionDegrees,WindSpeedMPH,WindSpeedGustMPH,Humidity,HourlyPrecipIn,Conditions,Clouds,dailyrainin,SoftwareType,DateUTC
2013-05-29 00:02:00,70.0,58.0,30.14,SSE,157,0.0,0.0,66,0.00,,,0.00,,2013-05-29 04:02:00,
2013-05-29 00:13:00,70.0,58.0,30.14,SSE,147,0.0,2.0,66,0.00,,,0.00,,2013-05-29 04:13:00,
2013-05-29 00:23:00,70.0,58.0,30.14,SSE,147,0.0,2.0,66,0.00,,,0.00,,2013-05-29 04:23:00,
2013-05-29 00:33:00,70.0,59.0,30.13,SE,133,1.0,3.0,67,0.00,,,0.00,,2013-05-29 04:33:00,
2013-05-29 00:42:00,70.0,59.0,30.13,SE,133,1.0,3.0,67,0.00,,,0.00,,2013-05-29 04:42:00,
2013-05-29 00:52:00,70.0,59.0,30.14,SSW,195,0.0,3.0,67,0.00,,,0.00,,2013-05-29 04:52:00,
2013-05-29 01:03:00,69.0,58.0,30.13,SSE,147,1.0,5.0,68,0.00,,,0.00,,2013-05-29 05:03:00,
2013-05-29 01:12:00,69.0,58.0,30.13,SSE,147,1.0,5.0,68,0.00,,,0.00,,2013-05-29 05:12:00,
2013-05-29 01:22:00,69.0,58.0,30.13,SE,145,0.0,2.0,69,0.00,,,0.00,,2013-05-29 05:22:00,
2013-05-29 01:33:00,68.0,58.0,30.13,SE,145,0.0,2.0,70,0.00,,,0.00,,2013-05-29 05:33:00,
2013-05-29 01:42:00,68.0,58.0,30.13,SE,145,0.0,2.0,70,0.00,,,0.00,,2013-05-29 05:42:00,
2013-05-29 01:52:00,68.0,57.0,30.13,SSE,151,1.0,3.0,68,0.00,,,0.00,,2013-05-29 05:52:00,
2013-05-29 02:02:00,69.0,58.0,30.13,SSE,158,0.0,5.0,67,0.00,,,0.00,,2013-05-29 06:02:00,
2013-05-29 02:12:00,69.0,58.0,30.13,SSE,158,0.0,5.0,67,0.00,,,0.00,,2013-05-29 06:12:00,
2013-05-29 02:21:00,69.0,57.0,30.13,SSE,150,0.0,2.0,66,0.00,,,0.00,,2013-05-29 06:21:00,
2013-05-29 02:32:00,68.0,57.0,30.13,SSE,150,0.0,2.0,67,0.00,,,0.00,,2013-05-29 06:32:00,
2013-05-29 02:42:00,68.0,57.0,30.13,SSE,150,0.0,2.0,67,0.00,,,0.00,,2013-05-29 06:42:00,
2013-05-29 02:52:00,68.0,57.0,30.13,SSE,160,0.0,0.0,67,0.00,,,0.00,,2013-05-29 06:52:00,
2013-05-29 03:01:00,68.0,56.0,30.14,WSW,240,0.0,2.0,66,0.00,,,0.00,,2013-05-29 07:01:00,
2013-05-29 03:12:00,68.0,57.0,30.14,SW,233,0.0,2.0,67,0.00,,,0.00,,2013-05-29 07:12:00,
2013-05-29 03:21:00,68.0,57.0,30.14,SW,233,0.0,2.0,67,0.00,,,0.00,,2013-05-29 07:21:00,
2013-05-29 03:34:00,67.0,56.0,30.14,SW,233,0.0,0.0,69,0.00,,,0.00,,2013-05-29 07:34:00,
2013-05-29 03:42:00,67.0,56.0,30.14,SW,233,0.0,0.0,69,0.00,,,0.00,,2013-05-29 07:42:00,
2013-05-29 03:52:00,67.0,56.0,30.15,SW,233,0.0,0.0,69,0.00,,,0.00,,2013-05-29 07:52:00,
2013-05-29 04:02:00,67.0,56.0,30.15,SW,233,0.0,0.0,69,0.00,,,0.00,,2013-05-29 08:02:00,
2013-05-29 04:11:00,67.0,56.0,30.15,SW,233,0.0,0.0,69,0.00,,,0.00,,2013-05-29 08:11:00,
2013-05-29 04:22:00,67.0,56.0,30.15,SW,233,0.0,0.0,69,0.00,,,0.00,,2013-05-29 08:22:00,
2013-05-29 04:32:00,67.0,57.0,30.16,SW,233,0.0,0.0,70,0.00,,,0.00,,2013-05-29 08:32:00,
2013-05-29 04:42:00,67.0,57.0,30.16,SW,233,0.0,0.0,70,0.00,,,0.00,,2013-05-29 08:42:00,
2013-05-29 04:52:00,66.0,57.0,30.17,SW,233,0.0,0.0,73,0.00,,,0.00,,2013-05-29 08:52:00,
2013-05-29 05:01:00,66.0,57.0,30.17,SW,233,0.0,0.0,74,0.00,,,0.00,,2013-05-29 09:01:00,
2013-05-29 05:11:00,66.0,57.0,30.17,SW,233,0.0,0.0,74,0.00,,,0.00,,2013-05-29 09:11:00,
2013-05-29 05:21:00,66.0,57.0,30.17,SW,233,0.0,0.0,74,0.00,,,0.00,,2013-05-29 09:21:00,
2013-05-29 05:33:00,66.0,57.0,30.17,SW,233,0.0,0.0,74,0.00,,,0.00,,2013-05-29 09:33:00,
2013-05-29 05:42:00,66.0,57.0,30.17,SW,233,0.0,0.0,74,0.00,,,0.00,,2013-05-29 09:42:00,
2013-05-29 05:52:00,66.0,58.0,30.17,South,181,0.0,2.0,76,0.00,,,0.00,,2013-05-29 09:52:00,
2013-05-29 06:03:00,66.0,58.0,30.18,South,181,0.0,0.0,76,0.00,,,0.00,,2013-05-29 10:03:00,
2013-05-29 06:12:00,67.0,59.0,30.18,SSE,164,0.0,2.0,76,0.00,,,0.00,,2013-05-29 10:12:00,
2013-05-29 06:22:00,67.0,59.0,30.18,SSE,164,0.0,2.0,76,0.00,,,0.00,,2013-05-29 10:22:00,
2013-05-29 06:33:00,67.0,59.0,30.18,SSE,164,0.0,0.0,76,0.00,,,0.00,,2013-05-29 10:33:00,
2013-05-29 06:42:00,67.0,59.0,30.18,SSE,164,0.0,0.0,76,0.00,,,0.00,,2013-05-29 10:42:00,
2013-05-29 06:52:00,67.0,59.0,30.19,SSE,164,0.0,0.0,76,0.00,,,0.00,,2013-05-29 10:52:00,
2013-05-29 07:02:00,67.0,59.0,30.19,SSE,162,0.0,0.0,76,0.00,,,0.00,,2013-05-29 11:02:00,
2013-05-29 07:12:00,66.0,59.0,30.19,SSE,162,0.0,0.0,77,0.00,,,0.00,,2013-05-29 11:12:00,
2013-05-29 07:22:00,66.0,59.0,30.19,SSE,162,0.0,0.0,77,0.00,,,0.00,,2013-05-29 11:22:00,
2013-05-29 07:32:00,66.0,59.0,30.20,SSE,162,0.0,0.0,78,0.00,,,0.00,,2013-05-29 11:32:00,
2013-05-29 07:42:00,66.0,59.0,30.20,SSE,162,0.0,0.0,78,0.00,,,0.00,,2013-05-29 11:42:00,
2013-05-29 07:52:00,65.0,59.0,30.20,SSE,162,0.0,0.0,80,0.00,,,0.00,,2013-05-29 11:52:00,
2013-05-29 08:01:00,65.0,59.0,30.21,SSE,162,0.0,0.0,81,0.00,,,0.00,,2013-05-29 12:01:00,
2013-05-29 08:11:00,65.0,59.0,30.21,SSE,162,0.0,0.0,81,0.00,,,0.00,,2013-05-29 12:11:00,
2013-05-29 08:22:00,66.0,60.0,30.21,SE,138,0.0,0.0,81,0.00,,,0.00,,2013-05-29 12:22:00,
2013-05-29 08:32:00,67.0,61.0,30.21,SSE,160,0.0,3.0,80,0.00,,,0.00,,2013-05-29 12:32:00,
2013-05-29 08:42:00,67.0,61.0,30.21,SSE,160,0.0,3.0,80,0.00,,,0.00,,2013-05-29 12:42:00,
2013-05-29 08:52:00,68.0,62.0,30.22,SSE,160,0.0,0.0,80,0.00,,,0.00,,2013-05-29 12:52:00,
2013-05-29 09:02:00,68.0,61.0,30.22,South,172,0.0,3.0,79,0.00,,,0.00,,2013-05-29 13:02:00,
2013-05-29 09:11:00,68.0,61.0,30.22,South,172,0.0,3.0,79,0.00,,,0.00,,2013-05-29 13:11:00,
2013-05-29 09:22:00,69.0,62.0,30.22,SSE,148,0.0,5.0,78,0.00,,,0.00,,2013-05-29 13:22:00,
2013-05-29 09:32:00,69.0,61.0,30.23,South,172,0.0,5.0,77,0.00,,,0.00,,2013-05-29 13:32:00,
2013-05-29 09:42:00,69.0,61.0,30.23,South,172,0.0,5.0,77,0.00,,,0.00,,2013-05-29 13:42:00,
2013-05-29 09:53:00,70.0,62.0,30.23,SSE,151,0.0,5.0,76,0.00,,,0.00,,2013-05-29 13:53:00,
2013-05-29 10:02:00,71.0,63.0,30.23,South,172,0.0,6.0,75,0.00,,,0.00,,2013-05-29 14:02:00,
2013-05-29 10:11:00,71.0,63.0,30.23,South,172,0.0,6.0,75,0.00,,,0.00,,2013-05-29 14:11:00,
2013-05-29 10:21:00,71.0,62.0,30.24,SE,126,1.0,6.0,73,0.00,,,0.00,,2013-05-29 14:21:00,
2013-05-29 10:32:00,72.0,63.0,30.24,SSE,147,0.0,5.0,73,0.00,,,0.00,,2013-05-29 14:32:00,
2013-05-29 10:42:00,72.0,63.0,30.24,SSE,147,0.0,5.0,73,0.00,,,0.00,,2013-05-29 14:42:00,
2013-05-29 10:52:00,73.0,64.0,30.24,South,184,1.0,5.0,73,0.00,,,0.00,,2013-05-29 14:52:00,
2013-05-29 11:01:00,73.0,63.0,30.24,SSW,193,0.0,6.0,72,0.00,,,0.00,,2013-05-29 15:01:00,
2013-05-29 11:11:00,74.0,64.0,30.24,SSW,195,1.0,5.0,71,0.00,,,0.00,,2013-05-29 15:11:00,
2013-05-29 11:21:00,74.0,64.0,30.24,SSW,195,1.0,5.0,71,0.00,,,0.00,,2013-05-29 15:21:00,
2013-05-29 11:33:00,75.0,65.0,30.23,SSE,161,0.0,4.0,70,0.00,,,0.00,,2013-05-29 15:33:00,
2013-05-29 11:42:00,75.0,65.0,30.23,SSE,161,0.0,4.0,70,0.00,,,0.00,,2013-05-29 15:42:00,
2013-05-29 11:53:00,75.0,64.0,30.23,SE,134,1.0,10.0,68,0.00,,,0.00,,2013-05-29 15:53:00,
2013-05-29 12:03:00,76.0,64.0,30.23,SSW,210,3.0,7.0,66,0.00,,,0.00,,2013-05-29 16:03:00,
2013-05-29 12:13:00,76.0,64.0,30.23,SSW,210,3.0,7.0,66,0.00,,,0.00,,2013-05-29 16:13:00,
2013-05-29 12:22:00,77.0,64.0,30.23,SW,219,3.0,7.0,65,0.00,,,0.00,,2013-05-29 16:22:00,
2013-05-29 12:33:00,78.0,65.0,30.23,SSE,158,2.0,6.0,65,0.00,,,0.00,,2013-05-29 16:33:00,
2013-05-29 12:42:00,78.0,65.0,30.23,SSE,158,2.0,6.0,65,0.00,,,0.00,,2013-05-29 16:42:00,
2013-05-29 12:52:00,79.0,64.0,30.22,SE,130,0.0,6.0,61,0.00,,,0.00,,2013-05-29 16:52:00,
2013-05-29 13:02:00,79.0,64.0,30.22,SSE,165,0.0,5.0,61,0.00,,,0.00,,2013-05-29 17:02:00,
2013-05-29 13:12:00,79.0,64.0,30.22,SSE,165,0.0,5.0,61,0.00,,,0.00,,2013-05-29 17:12:00,
2013-05-29 13:22:00,80.0,64.0,30.22,SSE,158,2.0,7.0,58,0.00,,,0.00,,2013-05-29 17:22:00,
2013-05-29 13:32:00,81.0,64.0,30.21,SSE,158,0.0,3.0,57,0.00,,,0.00,,2013-05-29 17:32:00,
2013-05-29 13:42:00,81.0,64.0,30.21,SSE,158,0.0,3.0,57,0.00,,,0.00,,2013-05-29 17:42:00,
2013-05-29 13:52:00,81.0,64.0,30.20,SSE,157,1.0,6.0,57,0.00,,,0.00,,2013-05-29 17:52:00,
2013-05-29 14:01:00,80.0,64.0,30.19,SSE,152,0.0,5.0,58,0.00,,,0.00,,2013-05-29 18:01:00,
2013-05-29 14:13:00,81.0,64.0,30.19,SE,145,2.0,10.0,56,0.00,,,0.00,,2013-05-29 18:13:00,
2013-05-29 14:22:00,81.0,64.0,30.19,SE,145,2.0,10.0,56,0.00,,,0.00,,2013-05-29 18:22:00,
2013-05-29 14:32:00,82.0,64.0,30.19,SE,143,0.0,5.0,55,0.00,,,0.00,,2013-05-29 18:32:00,
2013-05-29 14:42:00,82.0,64.0,30.19,SE,143,0.0,5.0,55,0.00,,,0.00,,2013-05-29 18:42:00,
2013-05-29 14:51:00,82.0,64.0,30.19,South,185,1.0,6.0,54,0.00,,,0.00,,2013-05-29 18:51:00,
2013-05-29 15:02:00,82.0,64.0,30.18,SE,143,0.0,7.0,55,0.00,,,0.00,,2013-05-29 19:02:00,
2013-05-29 15:11:00,83.0,64.0,30.18,SSE,151,0.0,8.0,52,0.00,,,0.00,,2013-05-29 19:11:00,
2013-05-29 15:22:00,83.0,64.0,30.18,SSE,151,0.0,8.0,52,0.00,,,0.00,,2013-05-29 19:22:00,
2013-05-29 15:32:00,83.0,64.0,30.18,SSE,167,0.0,4.0,52,0.00,,,0.00,,2013-05-29 19:32:00,
2013-05-29 15:44:00,84.0,63.0,30.17,WSW,243,2.0,5.0,49,0.00,,,0.00,,2013-05-29 19:44:00,
2013-05-29 15:53:00,84.0,63.0,30.17,WSW,243,2.0,5.0,49,0.00,,,0.00,,2013-05-29 19:53:00,
2013-05-29 16:03:00,84.0,61.0,30.17,SSW,193,0.0,8.0,46,0.00,,,0.00,,2013-05-29 20:03:00,
2013-05-29 16:12:00,84.0,62.0,30.16,SSW,199,0.0,5.0,47,0.00,,,0.00,,2013-05-29 20:12:00,
2013-05-29 16:23:00,84.0,62.0,30.16,SSW,199,0.0,5.0,47,0.00,,,0.00,,2013-05-29 20:23:00,
2013-05-29 16:33:00,84.0,61.0,30.15,SSE,150,0.0,5.0,46,0.00,,,0.00,,2013-05-29 20:33:00,
2013-05-29 16:42:00,84.0,61.0,30.15,SSE,150,0.0,5.0,46,0.00,,,0.00,,2013-05-29 20:42:00,
2013-05-29 16:52:00,83.0,62.0,30.15,SSE,165,1.0,6.0,50,0.00,,,0.00,,2013-05-29 20:52:00,
2013-05-29 17:02:00,82.0,61.0,30.15,SE,124,0.0,2.0,50,0.00,,,0.00,,2013-05-29 21:02:00,
2013-05-29 17:12:00,82.0,61.0,30.15,SE,124,0.0,2.0,50,0.00,,,0.00,,2013-05-29 21:12:00,
2013-05-29 17:22:00,83.0,62.0,30.15,SE,126,0.0,1.0,50,0.00,,,0.00,,2013-05-29 21:22:00,
2013-05-29 17:33:00,83.0,62.0,30.14,SSE,160,1.0,8.0,49,0.00,,,0.00,,2013-05-29 21:33:00,
2013-05-29 17:43:00,83.0,62.0,30.13,SSE,165,1.0,7.0,49,0.00,,,0.00,,2013-05-29 21:43:00,
2013-05-29 17:53:00,83.0,62.0,30.13,SSE,165,1.0,7.0,49,0.00,,,0.00,,2013-05-29 21:53:00,
2013-05-29 18:03:00,83.0,61.0,30.13,SSE,157,0.0,7.0,48,0.00,,,0.00,,2013-05-29 22:03:00,
2013-05-29 18:12:00,83.0,61.0,30.13,SSE,157,0.0,7.0,48,0.00,,,0.00,,2013-05-29 22:12:00,
2013-05-29 18:23:00,83.0,60.0,30.13,South,174,0.0,8.0,46,0.00,,,0.00,,2013-05-29 22:23:00,
2013-05-29 18:33:00,82.0,60.0,30.13,SSE,154,0.0,5.0,47,0.00,,,0.00,,2013-05-29 22:33:00,
2013-05-29 18:42:00,82.0,60.0,30.13,South,174,0.0,7.0,47,0.00,,,0.00,,2013-05-29 22:42:00,
2013-05-29 18:53:00,82.0,60.0,30.13,South,174,0.0,7.0,47,0.00,,,0.00,,2013-05-29 22:53:00,
2013-05-29 19:02:00,81.0,59.0,30.14,ESE,121,1.0,8.0,47,0.00,,,0.00,,2013-05-29 23:02:00,
2013-05-29 19:12:00,81.0,59.0,30.14,ESE,121,1.0,8.0,47,0.00,,,0.00,,2013-05-29 23:12:00,
2013-05-29 19:22:00,81.0,56.0,30.14,ESE,112,2.0,7.0,42,0.00,,,0.00,,2013-05-29 23:22:00,
2013-05-29 19:33:00,80.0,57.0,30.14,SE,144,1.0,7.0,45,0.00,,,0.00,,2013-05-29 23:33:00,
2013-05-29 19:42:00,80.0,58.0,30.14,SSE,150,1.0,3.0,47,0.00,,,0.00,,2013-05-29 23:42:00,
2013-05-29 19:53:00,80.0,58.0,30.14,SSE,150,1.0,3.0,47,0.00,,,0.00,,2013-05-29 23:53:00,
2013-05-29 20:02:00,79.0,57.0,30.14,SSE,158,0.0,6.0,47,0.00,,,0.00,,2013-05-30 00:02:00,
2013-05-29 20:12:00,79.0,57.0,30.14,SSE,158,0.0,6.0,47,0.00,,,0.00,,2013-05-30 00:12:00,
2013-05-29 20:22:00,78.0,58.0,30.14,East,82,1.0,5.0,50,0.00,,,0.00,,2013-05-30 00:22:00,
2013-05-29 20:32:00,78.0,59.0,30.14,SE,126,0.0,2.0,53,0.00,,,0.00,,2013-05-30 00:32:00,
2013-05-29 20:42:00,78.0,59.0,30.14,SE,126,0.0,2.0,53,0.00,,,0.00,,2013-05-30 00:42:00,
2013-05-29 20:52:00,78.0,60.0,30.14,SSE,152,0.0,7.0,54,0.00,,,0.00,,2013-05-30 00:52:00,
2013-05-29 21:02:00,77.0,61.0,30.13,SSE,154,0.0,2.0,57,0.00,,,0.00,,2013-05-30 01:02:00,
2013-05-29 21:11:00,77.0,61.0,30.13,SSE,154,0.0,2.0,57,0.00,,,0.00,,2013-05-30 01:11:00,
2013-05-29 21:22:00,77.0,62.0,30.13,SSE,154,0.0,1.0,59,0.00,,,0.00,,2013-05-30 01:22:00,
2013-05-29 21:32:00,76.0,62.0,30.13,South,172,0.0,2.0,61,0.00,,,0.00,,2013-05-30 01:32:00,
2013-05-29 21:42:00,76.0,62.0,30.13,South,172,0.0,2.0,61,0.00,,,0.00,,2013-05-30 01:42:00,
2013-05-29 21:52:00,76.0,62.0,30.14,South,169,0.0,2.0,63,0.00,,,0.00,,2013-05-30 01:52:00,
2013-05-29 22:01:00,75.0,62.0,30.14,SSE,168,0.0,0.0,64,0.00,,,0.00,,2013-05-30 02:01:00,
2013-05-29 22:11:00,75.0,62.0,30.14,SSE,168,0.0,0.0,64,0.00,,,0.00,,2013-05-30 02:11:00,
2013-05-29 22:21:00,75.0,62.0,30.14,SSE,168,0.0,0.0,65,0.00,,,0.00,,2013-05-30 02:21:00,
2013-05-29 22:32:00,74.0,62.0,30.15,SSE,168,0.0,0.0,66,0.00,,,0.00,,2013-05-30 02:32:00,
2013-05-29 22:42:00,74.0,62.0,30.15,SSE,168,0.0,0.0,66,0.00,,,0.00,,2013-05-30 02:42:00,
2013-05-29 22:52:00,74.0,62.0,30.15,SSE,168,0.0,0.0,66,0.00,,,0.00,,2013-05-30 02:52:00,
2013-05-29 23:02:00,74.0,62.0,30.15,SSE,164,0.0,2.0,67,0.00,,,0.00,,2013-05-30 03:02:00,
2013-05-29 23:11:00,74.0,63.0,30.15,SSE,161,0.0,2.0,68,0.00,,,0.00,,2013-05-30 03:11:00,
2013-05-29 23:21:00,74.0,63.0,30.15,SSE,161,0.0,2.0,68,0.00,,,0.00,,2013-05-30 03:21:00,
2013-05-29 23:33:00,73.0,62.0,30.15,SSE,161,0.0,0.0,68,0.00,,,0.00,,2013-05-30 03:33:00,
2013-05-29 23:43:00,73.0,62.0,30.15,SSE,161,0.0,0.0,68,0.00,,,0.00,,2013-05-30 03:43:00,
2013-05-29 23:53:00,73.0,62.0,30.15,SSE,161,0.0,0.0,68,0.00,,,0.00,,2013-05-30 03:53:00,